Preview of NWS' New Version of Forecast
This preview is not operational and should not be used for support decisions.

Regional Weather Roundup (RWR)

Issued by Philadelphia/Mt Holly (PHI)

                            
000
ASUS41 KPHI 182012
RWRPHI

REGIONAL WEATHER ROUNDUP
NATIONAL WEATHER SERVICE MOUNT HOLLY NJ
300 PM EST FRI JAN 18 2019

NOTE:  "FAIR" INDICATES FEW OR NO CLOUDS BELOW 12,000 FEET WITH NO
SIGNIFICANT WEATHER AND/OR OBSTRUCTIONS TO VISIBILITY.

 * = STATION DOES NOT REPORT PRECIPITATION (E.G. RAIN, SNOW, ETC.) 
        OR FOG.

NJZ015>026-182100-
SOUTHERN NEW JERSEY
  
CITY           SKY/WX    TMP DP  RH WIND       PRES   REMARKS
POMONA         CLOUDY    38  38 100 W7        30.06S WCI  33          
WILDWOOD*      CLOUDY    38  36  92 W7        30.08S WCI  33          
MILLVILLE      CLOUDY    39  35  86 W9        30.07R WCI  33          
WRIGHTSTOWN    CLOUDY    36  36  98 W5        30.04R WCI  32          
MOUNT HOLLY    CLOUDY    35  34  96 W3        30.08R FOG              
TRENTON        CLOUDY    35  33  92 CALM      30.05S FOG              

$$
NJZ001>014-182100-
NORTHERN NEW JERSEY
  
CITY           SKY/WX    TMP DP  RH WIND       PRES   REMARKS
SUSSEX         CLOUDY    33  30  88 SW5       30.02S WCI  29          
ANDOVER*         N/A     33  29  85 VRB5      30.03R WCI  29          
MORRISTOWN     CLOUDY    36  34  93 CALM      30.04F FOG              
NEWARK         CLOUDY    37  32  82 SW5       30.04F WCI  33          
TETERBORO      CLOUDY    40  33  76 S9        30.03F WCI  34          
CALDWELL       CLOUDY    35  31  85 SW3       30.04F                  
SOMERVILLE     CLOUDY    35  31  85 CALM      30.04S                  
ALLAIRE*       CLOUDY    37  35  92 W5        30.06S WCI  33          
TOMS RIVER*    CLOUDY    39  37  92 W3        30.07R                  

$$
PAZ043-044-047-054-055-060>062-066>071-182100-
EASTERN PENNSYLVANIA
  
CITY           SKY/WX    TMP DP  RH WIND       PRES   REMARKS
PHILADELPHIA   CLOUDY    37  33  85 W6        30.09R FOG     WCI  32  
NORTH PHILA    CLOUDY    38  33  82 W7        30.09R HAZE    WCI  33  
BLUE BELL*     CLOUDY    32  32 100 W6        30.09R WCI  26          
DOYLESTOWN     CLOUDY    34  31  88 SW5       30.05R WCI  30          
QUAKERTOWN*    CLOUDY    34  32  93 W6        30.06  WCI  29          
PERKASIE*      CLOUDY    34  34 100 W9        30.05S WCI  26          
POTTSTOWN      CLOUDY    34  31  88 VRB5      30.08R FOG     WCI  30  
LANCASTER      CLOUDY    35  31  85 W5        30.07S FOG     WCI  31  
COATESVILLE    CLOUDY    34  32  93 W8        30.08R FOG     WCI  27  
READING        CLOUDY    35  31  85 W7        30.07R WCI  29          
ALLENTOWN      CLOUDY    35  29  78 W7        30.07R HAZE    WCI  29  
MOUNT POCONO   CLOUDY    30  28  92 W12       29.97R WCI  20          
HAZLETON       CLOUDY   N/A N/A N/A NW7       30.04R                  
LEHIGHTON      CLOUDY    34  30  86 CALM      30.06R                  
WILKES BARRE   CLOUDY    32  28  85 SW12      30.03R WCI  23          

$$
DEZALL-MDZ008-012-015-019-020-182100-
DELAWARE AND EASTERN MARYLAND
  
CITY           SKY/WX    TMP DP  RH WIND       PRES   REMARKS
WILMINGTON     CLOUDY    38  33  82 W6        30.09R WCI  33          
DOVER          CLOUDY    40  35  82 W7        30.07R                  
GEORGETOWN     PTSUNNY   46  36  68 N5        30.08R                  
EASTON         CLOUDY    39  36  87 W8        30.13R WCI  34          
ABERDEEN       PTSUNNY   37  34  87 SW6       30.10R FOG     WCI  33  
PATUXENT       FAIR      42  39  89 NE7       30.09                   
OCEAN CITY     PTSUNNY   48  37  65 NW6       30.06S                  
WALLOPS ISLAND FAIR      52  35  52 W9        30.07R                  
CAMBRIDGE      MOSUNNY   41  36  81 NW9       30.09R                  
SALISBURY      FAIR      48  38  68 NW10      30.07R                  

$$
PAZ001-021-NYZ056-072-MDZ011-DCZ001-182100-
OTHER NEARBY LOCATIONS
  
CITY           SKY/WX    TMP DP  RH WIND       PRES   REMARKS
HARRISBURG     CLOUDY    35  29  78 NW6       30.08R HAZE    WCI  30  
STATE COLLEGE  CLOUDY    32  32 100 SW5       30.04R FOG     WCI  27  
WILLIAMSPORT   CLOUDY    33  26  75 CALM      30.06R                  
BINGHAMTON     CLOUDY    30  25  81 W10       29.97R WCI  21          
NEW YORK CITY  CLOUDY    39  32  76 MISG      30.05F                  
BALTIMORE      FAIR      42  35  76 SW5       30.07R                  
WASHINGTON DC  PTSUNNY   38  34  85 S8        30.10R WCI  32          

$$